When you browse on this site, cookies collect data to enhance your experience and personalize the content and advertising you see.
Visit our Privacy Policy to learn more. By continuing to use the site, you agree to this use of cookies and data.
  • In United Kingdom
  • List of Countries
  • For 7 days
  • Water Temperature
  • Satellite Maps
  • Weather Map
  • Weather Widgets
  • user-avatar
    Login

    Hourly Weather Leeds

    Today, 23 April, Tuesday

    Time Temperature Precipitation Wind Pressure Humidity
    00:00 +12°C° 0 mm 2 mps 747 mmHg 74%
    01:00 +12°C° 0 mm 2 mps 747 mmHg 77%
    02:00 +10°C° 0 mm 2 mps 747 mmHg 80%
    03:00 +11°C° 0 mm 1 mps 747 mmHg 83%
    04:00 +10°C° 0 mm 2 mps 747 mmHg 84%
    05:00 +10°C° 0 mm 2 mps 746 mmHg 85%
    06:00 +10°C° 0 mm 2 mps 746 mmHg 84%
    07:00 +11°C° 0 mm 3 mps 746 mmHg 79%
    08:00 +12°C° 0 mm 3 mps 746 mmHg 75%
    09:00 +14°C° 0 mm 4 mps 746 mmHg 70%
    10:00 +15°C° 0 mm 4 mps 746 mmHg 66%
    11:00 +16°C° 0 mm 5 mps 745 mmHg 62%
    12:00 +17°C° 0 mm 5 mps 745 mmHg 58%
    13:00 +17°C° 0 mm 5 mps 745 mmHg 58%
    14:00 +17°C° 0 mm 5 mps 745 mmHg 58%
    15:00 +17°C° 0 mm 5 mps 744 mmHg 58%
    16:00 +16°C° 0 mm 5 mps 744 mmHg 62%
    17:00 +15°C° 0 mm 5 mps 744 mmHg 65%
    18:00 +14°C° 0 mm 4 mps 744 mmHg 69%
    19:00 +12°C° 0 mm 4 mps 744 mmHg 75%
    20:00 +11°C° 0 mm 4 mps 744 mmHg 81%
    21:00 +9°C° 0 mm 3 mps 744 mmHg 87%
    22:00 +9°C° 0 mm 3 mps 744 mmHg 89%
    23:00 +9°C° 0 mm 3 mps 743 mmHg 91%

    Tomorrow, 24 April, Wednesday

    Time Temperature Precipitation Wind Pressure Humidity
    00:00 +8°C° 0 mm 3 mps 743 mmHg 92%
    01:00 +8°C° 0 mm 3 mps 743 mmHg 93%
    02:00 +9°C° 0 mm 3 mps 742 mmHg 93%
    03:00 +8°C° 0 mm 4 mps 742 mmHg 94%
    04:00 +8°C° 0 mm 4 mps 742 mmHg 94%
    05:00 +8°C° 0 mm 4 mps 741 mmHg 93%
    06:00 +8°C° 0 mm 4 mps 741 mmHg 93%
    07:00 +10°C° 0 mm 4 mps 741 mmHg 91%
    08:00 +11°C° 0 mm 4 mps 740 mmHg 89%
    09:00 +11°C° 0 mm 4 mps 740 mmHg 87%
    10:00 +12°C° 0 mm 4 mps 739 mmHg 84%
    11:00 +14°C° 0 mm 4 mps 739 mmHg 81%
    12:00 +15°C° 0 mm 5 mps 738 mmHg 79%
    13:00 +15°C° 0.9 mm 5 mps 738 mmHg 79%
    14:00 +16°C° 0.9 mm 5 mps 738 mmHg 79%
    15:00 +16°C° 0.9 mm 5 mps 738 mmHg 78%
    16:00 +15°C° 0.4 mm 5 mps 739 mmHg 77%
    17:00 +15°C° 0.4 mm 5 mps 739 mmHg 75%
    18:00 +14°C° 0.4 mm 5 mps 739 mmHg 73%
    19:00 +13°C° 0 mm 4 mps 740 mmHg 76%
    20:00 +12°C° 0 mm 4 mps 741 mmHg 79%
    21:00 +11°C° 0 mm 3 mps 742 mmHg 81%
    22:00 +10°C° 0 mm 3 mps 742 mmHg 81%
    23:00 +10°C° 0 mm 3 mps 743 mmHg 81%

    Day after tomorrow, 25 April, Thursday

    Time Temperature Precipitation Wind Pressure Humidity
    00:00 +9°C° 0 mm 3 mps 743 mmHg 81%
    01:00 +9°C° 0 mm 3 mps 743 mmHg 82%
    02:00 +8°C° 0 mm 2 mps 742 mmHg 84%
    03:00 +8°C° 0 mm 2 mps 742 mmHg 85%
    04:00 +8°C° 0 mm 3 mps 742 mmHg 86%
    05:00 +8°C° 0 mm 3 mps 742 mmHg 87%
    06:00 +7°C° 0 mm 4 mps 742 mmHg 89%
    07:00 +8°C° 0.4 mm 4 mps 742 mmHg 88%
    08:00 +8°C° 0.4 mm 4 mps 742 mmHg 88%
    09:00 +9°C° 0.4 mm 5 mps 742 mmHg 88%
    10:00 +10°C° 0.5 mm 5 mps 743 mmHg 81%
    11:00 +10°C° 0.5 mm 5 mps 743 mmHg 74%
    12:00 +12°C° 0.5 mm 5 mps 744 mmHg 67%
    13:00 +13°C° 0.3 mm 5 mps 744 mmHg 64%
    14:00 +13°C° 0.3 mm 5 mps 745 mmHg 61%
    15:00 +14°C° 0.3 mm 5 mps 745 mmHg 58%
    16:00 +13°C° 0.2 mm 5 mps 746 mmHg 61%
    17:00 +13°C° 0.2 mm 4 mps 746 mmHg 64%
    18:00 +12°C° 0.2 mm 3 mps 746 mmHg 67%
    19:00 +11°C° 0 mm 3 mps 747 mmHg 70%
    20:00 +10°C° 0 mm 3 mps 747 mmHg 74%
    21:00 +9°C° 0 mm 2 mps 748 mmHg 77%
    22:00 +9°C° 0 mm 2 mps 748 mmHg 78%
    23:00 +8°C° 0 mm 2 mps 748 mmHg 80%

    26 April, Friday

    Time Temperature Precipitation Wind Pressure Humidity
    00:00 +8°C° 0 mm 2 mps 748 mmHg 81%
    01:00 +8°C° 0 mm 2 mps 749 mmHg 83%
    02:00 +8°C° 0 mm 1 mps 749 mmHg 85%
    03:00 +7°C° 0 mm 1 mps 749 mmHg 87%
    04:00 +8°C° 0 mm 1 mps 749 mmHg 87%
    05:00 +8°C° 0 mm 1 mps 749 mmHg 87%
    06:00 +7°C° 0 mm 2 mps 750 mmHg 87%
    07:00 +8°C° 0 mm 2 mps 750 mmHg 80%
    08:00 +10°C° 0 mm 2 mps 750 mmHg 73%
    09:00 +13°C° 0 mm 2 mps 750 mmHg 67%
    10:00 +14°C° 0 mm 2 mps 750 mmHg 61%
    11:00 +15°C° 0 mm 2 mps 750 mmHg 56%
    12:00 +16°C° 0 mm 2 mps 750 mmHg 50%
    13:00 +16°C° 0.3 mm 2 mps 750 mmHg 51%
    14:00 +16°C° 0.3 mm 2 mps 750 mmHg 51%
    15:00 +16°C° 0.3 mm 2 mps 750 mmHg 52%
    16:00 +16°C° 0.6 mm 2 mps 750 mmHg 56%
    17:00 +15°C° 0.6 mm 2 mps 750 mmHg 61%
    18:00 +14°C° 0.6 mm 2 mps 750 mmHg 65%
    19:00 +13°C° 0.1 mm 2 mps 751 mmHg 70%
    20:00 +10°C° 0.1 mm 2 mps 751 mmHg 74%
    21:00 +9°C° 0.1 mm 3 mps 752 mmHg 78%
    22:00 +9°C° 0 mm 3 mps 752 mmHg 81%
    23:00 +8°C° 0 mm 3 mps 752 mmHg 83%

    27 April, Saturday

    Time Temperature Precipitation Wind Pressure Humidity
    00:00 +7°C° 0 mm 4 mps 752 mmHg 86%
    01:00 +7°C° 0 mm 4 mps 752 mmHg 86%
    02:00 +7°C° 0 mm 3 mps 752 mmHg 86%
    03:00 +7°C° 0 mm 3 mps 752 mmHg 86%
    04:00 +6°C° 0.1 mm 4 mps 752 mmHg 85%
    05:00 +6°C° 0.1 mm 4 mps 753 mmHg 84%
    06:00 +6°C° 0.1 mm 4 mps 753 mmHg 83%
    07:00 +7°C° 0 mm 5 mps 754 mmHg 77%
    08:00 +8°C° 0 mm 6 mps 755 mmHg 70%
    09:00 +9°C° 0 mm 6 mps 755 mmHg 63%
    10:00 +10°C° 0 mm 7 mps 756 mmHg 60%
    11:00 +11°C° 0 mm 7 mps 757 mmHg 57%
    12:00 +11°C° 0 mm 7 mps 758 mmHg 54%
    13:00 +11°C° 0 mm 7 mps 758 mmHg 54%
    14:00 +11°C° 0 mm 7 mps 759 mmHg 55%
    15:00 +11°C° 0 mm 6 mps 759 mmHg 55%
    16:00 +10°C° 0 mm 6 mps 760 mmHg 57%
    17:00 +10°C° 0 mm 5 mps 761 mmHg 59%
    18:00 +10°C° 0 mm 4 mps 761 mmHg 61%
    19:00 +10°C° 0 mm 4 mps 762 mmHg 60%
    20:00 +8°C° 0 mm 4 mps 762 mmHg 60%
    21:00 +7°C° 0 mm 4 mps 763 mmHg 59%
    22:00 +8°C° 0 mm 3 mps 763 mmHg 61%
    23:00 +8°C° 0 mm 3 mps 763 mmHg 62%

    28 April, Sunday

    Time Temperature Precipitation Wind Pressure Humidity
    00:00 +8°C° 0 mm 3 mps 763 mmHg 63%
    01:00 +8°C° 0 mm 3 mps 763 mmHg 66%
    02:00 +8°C° 0 mm 3 mps 763 mmHg 69%
    03:00 +7°C° 0 mm 2 mps 762 mmHg 73%
    04:00 +8°C° 0 mm 3 mps 762 mmHg 75%
    05:00 +8°C° 0 mm 3 mps 761 mmHg 78%
    06:00 +7°C° 0 mm 4 mps 761 mmHg 81%
    07:00 +10°C° 0 mm 4 mps 761 mmHg 78%
    08:00 +12°C° 0 mm 5 mps 760 mmHg 75%
    09:00 +13°C° 0 mm 5 mps 760 mmHg 73%
    10:00 +14°C° 0 mm 5 mps 760 mmHg 72%
    11:00 +14°C° 0 mm 6 mps 759 mmHg 71%
    12:00 +15°C° 0 mm 6 mps 759 mmHg 70%
    13:00 +15°C° 0 mm 6 mps 759 mmHg 69%
    14:00 +16°C° 0 mm 6 mps 758 mmHg 68%
    15:00 +16°C° 0 mm 6 mps 757 mmHg 67%
    16:00 +15°C° 0.1 mm 5 mps 757 mmHg 70%
    17:00 +14°C° 0.1 mm 5 mps 756 mmHg 74%
    18:00 +13°C° 0.1 mm 5 mps 756 mmHg 77%
    19:00 +13°C° 0 mm 4 mps 756 mmHg 80%
    20:00 +12°C° 0 mm 4 mps 755 mmHg 82%
    21:00 +12°C° 0 mm 4 mps 755 mmHg 84%
    22:00 +11°C° 0.2 mm 4 mps 755 mmHg 85%
    23:00 +11°C° 0.2 mm 4 mps 754 mmHg 86%
    Show more